| time (UTC) | temp F | wind direction | speed knots | gust knots | rain 1hr in | rain 24hr in | rain mn in | humidity % | barometer mb |
| 20260507072504 | 51 | 311 | 0.0 | 0.0 | 0.00 | 0.00 | 0.00 | 98 | 1021.9 |
| 20260507072000 | 51 | 315 | 0.0 | 0.9 | 0.00 | 0.00 | 0.00 | 98 | 1021.9 |
| 20260507071458 | 51 | 270 | 0.9 | 0.9 | 0.00 | 0.00 | 0.00 | 98 | 1021.6 |
| 20260507070954 | 51 | 300 | 0.0 | 0.9 | 0.00 | 0.00 | 0.00 | 98 | 1021.6 |
| 20260507070451 | 51 | 260 | 0.0 | 0.9 | 0.00 | 0.00 | 0.00 | 98 | 1021.6 |
| 20260507065948 | 51 | 280 | 0.0 | 0.9 | 0.00 | 0.00 | 0.00 | 98 | 1021.6 |
| 20260507065445 | 51 | 294 | 0.9 | 1.7 | 0.00 | 0.00 | 0.00 | 98 | 1021.9 |
| 20260507064942 | 51 | 329 | 0.0 | 0.9 | 0.00 | 0.00 | 0.00 | 98 | 1021.6 |
| 20260507064440 | 51 | 284 | 0.0 | 1.7 | 0.00 | 0.00 | 0.00 | 98 | 1021.9 |
| 20260507063938 | 51 | 305 | 0.0 | 0.9 | 0.00 | 0.00 | 0.00 | 98 | 1021.9 |
| 20260507063434 | 51 | 300 | 0.0 | 0.0 | 0.00 | 0.00 | 0.00 | 98 | 1021.9 |
| 20260507062932 | 51 | 300 | 0.0 | 0.0 | 0.00 | 0.00 | 0.00 | 98 | 1021.9 |
| 20260507062429 | 51 | 296 | 0.0 | 0.0 | 0.00 | 0.00 | 0.00 | 97 | 1021.9 |
| 20260507061926 | 51 | 303 | 0.0 | 0.0 | 0.00 | 0.00 | 0.00 | 97 | 1021.6 |
| 20260507061424 | 52 | 312 | 0.0 | 0.9 | 0.00 | 0.00 | 0.00 | 97 | 1021.9 |
| 20260507060922 | 52 | 277 | 0.0 | 0.9 | 0.00 | 0.00 | 0.00 | 96 | 1021.9 |
| 20260507060419 | 52 | 274 | 0.9 | 0.9 | 0.00 | 0.00 | 0.00 | 96 | 1021.6 |
| 20260507055915 | 52 | 305 | 0.0 | 0.0 | 0.00 | 0.00 | 0.00 | 95 | 1021.9 |
| 20260507055410 | 52 | 304 | 0.0 | 0.9 | 0.00 | 0.00 | 0.00 | 95 | 1022.2 |
| 20260507054908 | 52 | 292 | 0.0 | 0.0 | 0.00 | 0.00 | 0.00 | 95 | 1021.9 |
| 20260507054404 | 52 | 271 | 0.9 | 0.9 | 0.00 | 0.00 | 0.00 | 95 | 1021.9 |
| 20260507053901 | 52 | 313 | 0.0 | 0.9 | 0.00 | 0.00 | 0.00 | 95 | 1021.9 |
| 20260507053359 | 52 | 282 | 0.0 | 1.7 | 0.00 | 0.00 | 0.00 | 94 | 1021.9 |
| 20260507052857 | 52 | 283 | 0.0 | 0.9 | 0.00 | 0.00 | 0.00 | 93 | 1021.9 |
| 20260507052354 | 53 | 291 | 0.0 | 1.7 | 0.00 | 0.00 | 0.00 | 92 | 1022.2 |
| 20260507051851 | 53 | 238 | 0.0 | 1.7 | 0.00 | 0.00 | 0.00 | 92 | 1021.9 |
| 20260507051349 | 53 | 296 | 0.0 | 0.0 | 0.00 | 0.00 | 0.00 | 91 | 1021.9 |
| 20260507050845 | 53 | 273 | 0.9 | 1.7 | 0.00 | 0.00 | 0.00 | 90 | 1021.9 |
| 20260507050342 | 53 | 295 | 0.0 | 0.0 | 0.00 | 0.00 | 0.00 | 89 | 1021.9 |
| 20260507045839 | 53 | 302 | 0.0 | 0.0 | 0.00 | 0.00 | 0.00 | 89 | 1021.9 |
| 20260507045335 | 53 | 293 | 0.0 | 0.9 | 0.00 | 0.00 | 0.00 | 89 | 1021.9 |
| 20260507044833 | 53 | 297 | 0.0 | 0.9 | 0.00 | 0.00 | 0.00 | 89 | 1022.2 |
| 20260507044329 | 54 | 315 | 0.0 | 0.0 | 0.00 | 0.00 | 0.00 | 89 | 1021.6 |
| 20260507043825 | 53 | 311 | 0.0 | 0.0 | 0.00 | 0.00 | 0.00 | 89 | 1021.9 |
| 20260507043322 | 54 | 297 | 0.0 | 0.0 | 0.00 | 0.00 | 0.00 | 88 | 1021.6 |
| 20260507042818 | 54 | 310 | 0.0 | 0.9 | 0.00 | 0.00 | 0.00 | 88 | 1021.9 |
| 20260507042314 | 54 | 231 | 0.0 | 0.0 | 0.00 | 0.00 | 0.00 | 88 | 1021.6 |
| 20260507041811 | 54 | 315 | 0.0 | 0.0 | 0.00 | 0.00 | 0.00 | 88 | 1021.6 |
| 20260507041308 | 54 | 275 | 0.0 | 0.0 | 0.00 | 0.00 | 0.00 | 88 | 1021.9 |
| 20260507040805 | 54 | 293 | 0.9 | 0.9 | 0.00 | 0.00 | 0.00 | 88 | 1021.9 |
| 20260507040301 | 54 | 269 | 0.0 | 0.9 | 0.00 | 0.00 | 0.00 | 88 | 1021.9 |
| 20260507035757 | 54 | 279 | 0.0 | 0.9 | 0.00 | 0.00 | 0.00 | 88 | 1021.9 |
| 20260507035252 | 54 | 309 | 0.9 | 0.9 | 0.00 | 0.00 | 0.00 | 87 | 1021.6 |
| 20260507034750 | 54 | 281 | 0.0 | 0.9 | 0.00 | 0.00 | 0.00 | 87 | 1021.6 |
| 20260507034247 | 54 | 290 | 0.0 | 0.9 | 0.00 | 0.00 | 0.00 | 87 | 1021.6 |
| 20260507033745 | 54 | 292 | 0.0 | 0.9 | 0.00 | 0.00 | 0.00 | 87 | 1021.6 |
| 20260507033242 | 54 | 303 | 0.0 | 0.9 | 0.00 | 0.00 | 0.00 | 87 | 1021.6 |
| 20260507032739 | 54 | 251 | 0.9 | 1.7 | 0.00 | 0.00 | 0.00 | 87 | 1021.6 |
| 20260507032235 | 54 | 278 | 1.7 | 1.7 | 0.00 | 0.00 | 0.00 | 87 | 1021.2 |
| 20260507031732 | 54 | 313 | 0.0 | 0.9 | 0.00 | 0.00 | 0.00 | 86 | 1021.6 |
| 20260507031229 | 54 | 275 | 0.0 | 1.7 | 0.00 | 0.00 | 0.00 | 86 | 1021.2 |
| 20260507030726 | 55 | 267 | 0.0 | 0.9 | 0.00 | 0.00 | 0.00 | 86 | 1021.2 |
| 20260507030223 | 55 | 269 | 0.0 | 1.7 | 0.00 | 0.00 | 0.00 | 85 | 1021.2 |
| 20260507025720 | 55 | 216 | 0.9 | 1.7 | 0.00 | 0.00 | 0.00 | 85 | 1021.2 |
| 20260507025217 | 55 | 279 | 0.0 | 1.7 | 0.00 | 0.00 | 0.00 | 85 | 1021.2 |
| 20260507024716 | 55 | 291 | 0.0 | 0.9 | 0.00 | 0.00 | 0.00 | 85 | 1021.2 |
| 20260507024212 | 55 | 284 | 0.9 | 1.7 | 0.00 | 0.00 | 0.00 | 85 | 1020.9 |
| 20260507023708 | 55 | 259 | 0.9 | 1.7 | 0.00 | 0.00 | 0.00 | 84 | 1021.2 |
| 20260507023205 | 55 | 304 | 0.0 | 1.7 | 0.00 | 0.00 | 0.00 | 84 | 1020.9 |
| 20260507022702 | 56 | 304 | 0.0 | 1.7 | 0.00 | 0.00 | 0.00 | 84 | 1020.9 |
| 20260507022158 | 56 | 295 | 0.0 | 0.9 | 0.00 | 0.00 | 0.00 | 84 | 1020.9 |
| 20260507021654 | 56 | 225 | 0.0 | 1.7 | 0.00 | 0.00 | 0.00 | 83 | 1020.9 |
| 20260507021149 | 56 | 297 | 0.0 | 0.9 | 0.00 | 0.00 | 0.00 | 83 | 1021.2 |
| 20260507020649 | 56 | 301 | 0.0 | 0.9 | 0.00 | 0.00 | 0.00 | 83 | 1021.2 |
| 20260507020144 | 56 | 283 | 0.0 | 0.9 | 0.00 | 0.00 | 0.00 | 83 | 1021.2 |
| 20260507015643 | 56 | 273 | 0.0 | 0.9 | 0.00 | 0.00 | 0.00 | 84 | 1021.2 |
| 20260507015140 | 56 | 230 | 0.0 | 1.7 | 0.00 | 0.00 | 0.00 | 83 | 1021.2 |
| 20260507014636 | 56 | 299 | 0.0 | 0.9 | 0.00 | 0.00 | 0.00 | 84 | 1020.9 |
| 20260507014132 | 56 | 293 | 0.9 | 0.9 | 0.00 | 0.00 | 0.00 | 84 | 1021.2 |
| 20260507013629 | 56 | 297 | 0.0 | 0.9 | 0.00 | 0.00 | 0.00 | 83 | 1021.2 |
| 20260507013126 | 56 | 284 | 0.0 | 1.7 | 0.00 | 0.00 | 0.00 | 83 | 1020.9 |
| 20260507012624 | 56 | 226 | 0.0 | 0.9 | 0.00 | 0.00 | 0.00 | 83 | 1020.9 |
| 20260507012119 | 56 | 300 | 0.0 | 0.9 | 0.00 | 0.00 | 0.00 | 84 | 1020.9 |
| 20260507011617 | 56 | 272 | 0.9 | 1.7 | 0.00 | 0.00 | 0.00 | 84 | 1021.2 |
| 20260507011113 | 56 | 288 | 1.7 | 1.7 | 0.00 | 0.00 | 0.00 | 84 | 1021.2 |
| 20260507010608 | 56 | 264 | 0.9 | 1.7 | 0.00 | 0.00 | 0.00 | 83 | 1021.2 |
| 20260507010104 | 56 | 256 | 1.7 | 1.7 | 0.00 | 0.00 | 0.00 | 83 | 1021.2 |
| 20260507005602 | 56 | 276 | 0.9 | 1.7 | 0.00 | 0.00 | 0.00 | 83 | 1021.2 |
| 20260507005058 | 57 | 311 | 1.7 | 2.6 | 0.00 | 0.00 | 0.00 | 82 | 1021.2 |
| 20260507004555 | 57 | 249 | 1.7 | 2.6 | 0.00 | 0.00 | 0.00 | 82 | 1021.6 |
| 20260507004052 | 57 | 200 | 0.9 | 1.7 | 0.00 | 0.00 | 0.00 | 81 | 1021.2 |
| 20260507003548 | 57 | 292 | 0.9 | 2.6 | 0.00 | 0.00 | 0.00 | 81 | 1021.2 |
| 20260507003043 | 57 | 297 | 2.6 | 3.5 | 0.00 | 0.00 | 0.00 | 81 | 1021.2 |
| 20260507002540 | 57 | 305 | 0.0 | 1.7 | 0.00 | 0.00 | 0.00 | 82 | 1021.2 |
| 20260507002036 | 56 | 240 | 0.9 | 1.7 | 0.00 | 0.00 | 0.00 | 82 | 1020.9 |
| 20260507001533 | 56 | 311 | 0.0 | 0.9 | 0.00 | 0.00 | 0.00 | 83 | 1021.2 |
| 20260507001031 | 56 | 275 | 0.9 | 2.6 | 0.00 | 0.00 | 0.00 | 82 | 1021.2 |
| 20260507000526 | 56 | 272 | 0.9 | 3.5 | 0.00 | 0.00 | 0.00 | 82 | 1021.2 |
| 20260507000023 | 56 | 289 | 0.0 | 2.6 | 0.00 | 0.00 | 0.00 | 81 | 1021.2 |
| 20260506235520 | 57 | 306 | 0.0 | 0.9 | 0.00 | 0.00 | 0.00 | 81 | 1021.2 |
| 20260506235015 | 57 | 287 | 0.0 | 0.9 | 0.00 | 0.00 | 0.00 | 81 | 1021.2 |
| 20260506234513 | 57 | 280 | 0.9 | 2.6 | 0.00 | 0.00 | 0.00 | 80 | 1021.2 |
| 20260506234010 | 57 | 297 | 0.9 | 2.6 | 0.00 | 0.00 | 0.00 | 81 | 1021.2 |
| 20260506233506 | 57 | 310 | 0.0 | 0.9 | 0.00 | 0.00 | 0.00 | 82 | 1021.2 |
| 20260506233003 | 57 | 295 | 0.9 | 1.7 | 0.00 | 0.00 | 0.00 | 82 | 1021.2 |
| 20260506232459 | 56 | 296 | 0.9 | 1.7 | 0.00 | 0.00 | 0.00 | 81 | 1021.2 |
| 20260506231955 | 56 | 306 | 0.9 | 2.6 | 0.00 | 0.00 | 0.00 | 81 | 1021.2 |
| 20260506231453 | 56 | 303 | 0.0 | 1.7 | 0.00 | 0.00 | 0.00 | 82 | 1021.2 |
| 20260506230950 | 56 | 299 | 0.0 | 0.9 | 0.00 | 0.00 | 0.00 | 82 | 1021.6 |
| 20260506230446 | 56 | 248 | 0.9 | 1.7 | 0.00 | 0.00 | 0.00 | 82 | 1021.2 |
| 20260506225943 | 56 | 302 | 0.0 | 0.9 | 0.00 | 0.00 | 0.00 | 83 | 1021.2 |
| 20260506225441 | 56 | 253 | 0.0 | 0.9 | 0.00 | 0.00 | 0.00 | 82 | 1021.6 |
| 20260506224937 | 56 | 276 | 0.9 | 1.7 | 0.00 | 0.00 | 0.00 | 82 | 1021.6 |
| 20260506224434 | 56 | 274 | 0.9 | 1.7 | 0.00 | 0.00 | 0.00 | 82 | 1021.6 |
| 20260506223931 | 56 | 300 | 0.0 | 0.9 | 0.00 | 0.00 | 0.00 | 82 | 1021.2 |
| 20260506223426 | 56 | 270 | 1.7 | 1.7 | 0.00 | 0.00 | 0.00 | 82 | 1021.2 |
| 20260506222924 | 56 | 299 | 0.9 | 1.7 | 0.00 | 0.00 | 0.00 | 82 | 1021.6 |
| 20260506222420 | 56 | 316 | 0.0 | 1.7 | 0.00 | 0.00 | 0.00 | 82 | 1021.6 |
| 20260506221917 | 56 | 297 | 0.9 | 1.7 | 0.00 | 0.00 | 0.00 | 82 | 1021.6 |
| 20260506221414 | 56 | 285 | 0.0 | 0.9 | 0.00 | 0.00 | 0.00 | 83 | 1021.6 |
| 20260506220912 | 56 | 288 | 0.0 | 0.9 | 0.00 | 0.00 | 0.00 | 83 | 1021.6 |
| 20260506220407 | 56 | 271 | 0.9 | 0.9 | 0.00 | 0.00 | 0.00 | 83 | 1021.6 |
| 20260506215904 | 56 | 253 | 1.7 | 2.6 | 0.00 | 0.00 | 0.00 | 83 | 1021.6 |
| 20260506215400 | 55 | 358 | 0.0 | 1.7 | 0.00 | 0.00 | 0.00 | 83 | 1021.6 |
| 20260506214856 | 56 | 304 | 0.0 | 0.9 | 0.00 | 0.00 | 0.00 | 84 | 1021.6 |
| 20260506214353 | 55 | 248 | 1.7 | 2.6 | 0.00 | 0.00 | 0.00 | 83 | 1021.6 |
| 20260506213851 | 55 | 274 | 0.0 | 0.9 | 0.00 | 0.00 | 0.00 | 84 | 1021.6 |
| 20260506213348 | 55 | 290 | 0.9 | 1.7 | 0.00 | 0.00 | 0.00 | 83 | 1021.6 |
| 20260506212845 | 56 | 290 | 1.7 | 1.7 | 0.00 | 0.00 | 0.00 | 84 | 1021.6 |
| 20260506212341 | 55 | 294 | 0.0 | 0.9 | 0.00 | 0.00 | 0.00 | 84 | 1021.9 |
| 20260506211836 | 55 | 289 | 0.9 | 1.7 | 0.00 | 0.00 | 0.00 | 84 | 1021.6 |
| 20260506211332 | 55 | 232 | 1.7 | 1.7 | 0.00 | 0.00 | 0.00 | 84 | 1021.6 |
| 20260506210830 | 55 | 298 | 0.9 | 1.7 | 0.00 | 0.00 | 0.00 | 84 | 1021.6 |
| 20260506210327 | 55 | 314 | 0.9 | 1.7 | 0.00 | 0.00 | 0.00 | 85 | 1021.6 |
| 20260506205824 | 55 | 279 | 0.0 | 1.7 | 0.00 | 0.00 | 0.00 | 85 | 1021.6 |
| 20260506205320 | 55 | 274 | 1.7 | 1.7 | 0.00 | 0.00 | 0.00 | 85 | 1021.6 |
| 20260506204817 | 55 | 272 | 0.9 | 1.7 | 0.00 | 0.00 | 0.00 | 85 | 1021.6 |
| 20260506204314 | 55 | 282 | 0.0 | 0.9 | 0.00 | 0.00 | 0.00 | 85 | 1021.6 |
| 20260506203812 | 55 | 263 | 0.0 | 0.0 | 0.00 | 0.00 | 0.00 | 87 | 1021.6 |
| 20260506203309 | 55 | 308 | 0.9 | 0.9 | 0.00 | 0.00 | 0.00 | 86 | 1021.6 |
| 20260506202806 | 55 | 275 | 0.9 | 1.7 | 0.00 | 0.00 | 0.00 | 87 | 1021.6 |
| 20260506202306 | 55 | 272 | 0.0 | 0.9 | 0.00 | 0.00 | 0.00 | 87 | 1021.2 |
| 20260506201759 | 55 | 304 | 0.0 | 0.9 | 0.00 | 0.00 | 0.00 | 88 | 1021.6 |
| 20260506201256 | 55 | 288 | 0.0 | 0.9 | 0.00 | 0.00 | 0.00 | 88 | 1021.2 |
| 20260506200753 | 55 | 282 | 0.0 | 0.0 | 0.00 | 0.00 | 0.00 | 89 | 1021.6 |
| 20260506200249 | 55 | 346 | 0.0 | 0.0 | 0.00 | 0.00 | 0.00 | 89 | 1021.2 |
| 20260506195746 | 54 | 289 | 0.0 | 0.9 | 0.00 | 0.00 | 0.00 | 89 | 1021.2 |
| 20260506195242 | 54 | 280 | 0.9 | 1.7 | 0.00 | 0.00 | 0.00 | 89 | 1021.6 |
| 20260506194739 | 54 | 269 | 0.0 | 0.9 | 0.00 | 0.00 | 0.00 | 90 | 1021.2 |
| 20260506194236 | 54 | 310 | 0.0 | 0.9 | 0.00 | 0.00 | 0.00 | 91 | 1021.2 |
| 20260506193734 | 54 | 321 | 0.0 | 0.9 | 0.00 | 0.00 | 0.00 | 91 | 1021.2 |
| 20260506193230 | 54 | 282 | 0.9 | 0.9 | 0.00 | 0.00 | 0.00 | 91 | 1021.2 |
| 20260506192727 | 54 | 307 | 0.0 | 1.7 | 0.00 | 0.00 | 0.00 | 92 | 1021.2 |
| 20260506192224 | 54 | 302 | 0.0 | 1.7 | 0.00 | 0.00 | 0.00 | 92 | 1021.2 |
| 20260506191720 | 54 | 304 | 0.0 | 0.0 | 0.00 | 0.00 | 0.00 | 92 | 1021.2 |
| 20260506191216 | 54 | 299 | 0.0 | 0.9 | 0.00 | 0.00 | 0.00 | 92 | 1021.2 |
| 20260506190714 | 54 | 247 | 0.0 | 1.7 | 0.00 | 0.00 | 0.00 | 93 | 1021.2 |
| 20260506190210 | 54 | 282 | 0.0 | 0.9 | 0.00 | 0.00 | 0.00 | 93 | 1020.9 |
| 20260506185708 | 54 | 278 | 0.0 | 1.7 | 0.00 | 0.00 | 0.00 | 93 | 1021.6 |
| 20260506185204 | 54 | 307 | 0.0 | 0.9 | 0.00 | 0.00 | 0.00 | 94 | 1021.2 |
| 20260506184702 | 53 | 306 | 0.0 | 0.9 | 0.00 | 0.00 | 0.00 | 94 | 1021.2 |
| 20260506184159 | 53 | 280 | 0.0 | 1.7 | 0.00 | 0.00 | 0.00 | 95 | 1021.2 |
| 20260506183655 | 53 | 300 | 0.0 | 0.9 | 0.00 | 0.00 | 0.00 | 95 | 1020.9 |
| 20260506183151 | 53 | 316 | 0.0 | 1.7 | 0.00 | 0.00 | 0.00 | 95 | 1021.2 |
| 20260506182649 | 53 | 285 | 0.9 | 0.9 | 0.00 | 0.00 | 0.00 | 96 | 1021.2 |
| 20260506182146 | 53 | 287 | 0.0 | 1.7 | 0.00 | 0.00 | 0.00 | 95 | 1020.9 |
| 20260506181644 | 54 | 293 | 0.0 | 0.9 | 0.00 | 0.00 | 0.00 | 96 | 1020.9 |
| 20260506181140 | 54 | 283 | 0.0 | 1.7 | 0.00 | 0.00 | 0.00 | 97 | 1020.9 |
| 20260506180637 | 53 | 277 | 0.0 | 0.9 | 0.00 | 0.00 | 0.00 | 98 | 1020.9 |
| 20260506180134 | 53 | 311 | 0.0 | 0.0 | 0.00 | 0.00 | 0.00 | 98 | 1020.9 |
| 20260506175630 | 53 | 350 | 0.0 | 0.0 | 0.00 | 0.00 | 0.00 | 98 | 1020.9 |
| 20260506175126 | 53 | 306 | 0.0 | 0.0 | 0.00 | 0.00 | 0.00 | 99 | 1020.9 |
| 20260506174625 | 53 | 319 | 0.0 | 0.0 | 0.00 | 0.00 | 0.00 | 99 | 1020.5 |
| 20260506174121 | 53 | 283 | 0.0 | 0.0 | 0.00 | 0.00 | 0.00 | 99 | 1020.9 |
| 20260506173619 | 53 | 316 | 0.0 | 0.0 | 0.00 | 0.00 | 0.00 | 99 | 1020.9 |
| 20260506173116 | 53 | 314 | 0.0 | 0.9 | 0.00 | 0.00 | 0.00 | 99 | 1020.9 |
| 20260506172613 | 53 | 307 | 0.0 | 0.0 | 0.00 | 0.00 | 0.00 | 99 | 1021.2 |
| 20260506172109 | 52 | 307 | 0.0 | 0.0 | 0.00 | 0.00 | 0.00 | 99 | 1020.9 |
| 20260506171607 | 53 | 311 | 0.0 | 0.0 | 0.00 | 0.00 | 0.00 | 99 | 1020.9 |
| 20260506171104 | 53 | 315 | 0.0 | 0.0 | 0.00 | 0.00 | 0.00 | 99 | 1020.9 |
| 20260506170556 | 53 | 307 | 0.0 | 0.9 | 0.00 | 0.00 | 0.00 | 99 | 1020.5 |
| 20260506170053 | 52 | 287 | 0.0 | 0.0 | 0.00 | 0.00 | 0.00 | 99 | 1020.9 |
| 20260506165552 | 52 | 328 | 0.9 | 0.9 | 0.00 | 0.00 | 0.00 | 99 | 1020.5 |
| 20260506165047 | 53 | 302 | 0.0 | 0.0 | 0.00 | 0.00 | 0.00 | 99 | 1020.5 |
| 20260506164545 | 53 | 270 | 0.0 | 0.9 | 0.00 | 0.00 | 0.00 | 99 | 1020.9 |
| 20260506164042 | 53 | 281 | 0.0 | 0.0 | 0.00 | 0.00 | 0.00 | 99 | 1020.5 |
| 20260506163537 | 53 | 305 | 0.0 | 0.0 | 0.00 | 0.00 | 0.00 | 99 | 1020.2 |
| 20260506163033 | 53 | 297 | 0.0 | 0.0 | 0.00 | 0.00 | 0.00 | 99 | 1020.2 |
| 20260506162530 | 53 | 303 | 0.0 | 0.0 | 0.00 | 0.00 | 0.00 | 99 | 1020.2 |
| 20260506162027 | 53 | 310 | 0.0 | 0.0 | 0.00 | 0.00 | 0.00 | 99 | 1020.5 |
| 20260506161525 | 53 | 319 | 0.0 | 0.0 | 0.00 | 0.00 | 0.00 | 99 | 1020.2 |
| 20260506161021 | 52 | 307 | 0.0 | 0.0 | 0.00 | 0.00 | 0.00 | 99 | 1020.5 |
| 20260506160519 | 52 | 309 | 0.0 | 0.0 | 0.00 | 0.00 | 0.00 | 99 | 1020.5 |
| 20260506160017 | 52 | 328 | 0.0 | 0.0 | 0.00 | 0.00 | 0.00 | 99 | 1020.5 |
| 20260506155515 | 52 | 309 | 0.0 | 0.0 | 0.00 | 0.00 | 0.00 | 99 | 1020.5 |
| 20260506153652 | 51 | 264 | 0.0 | 1.7 | 0.00 | 0.00 | 0.00 | 99 | 1020.5 |
| 20260506153149 | 52 | 273 | 0.0 | 0.9 | 0.00 | 0.00 | 0.00 | 99 | 1020.5 |
| 20260506152646 | 52 | 291 | 0.0 | 0.9 | 0.00 | 0.00 | 0.00 | 99 | 1020.5 |
| 20260506152143 | 51 | 282 | 0.9 | 1.7 | 0.00 | 0.00 | 0.00 | 99 | 1020.2 |
| 20260506151642 | 52 | 324 | 0.0 | 0.0 | 0.00 | 0.00 | 0.00 | 99 | 1020.2 |
| 20260506151138 | 52 | 301 | 0.0 | 0.0 | 0.00 | 0.00 | 0.00 | 99 | 1020.2 |
| 20260506150635 | 52 | 297 | 0.0 | 0.9 | 0.00 | 0.00 | 0.00 | 99 | 1020.5 |
| 20260506150132 | 52 | 272 | 0.0 | 0.0 | 0.00 | 0.00 | 0.00 | 99 | 1020.2 |
| 20260506145629 | 52 | 303 | 0.0 | 0.9 | 0.00 | 0.00 | 0.00 | 99 | 1020.2 |
| 20260506145126 | 52 | 290 | 0.0 | 0.0 | 0.00 | 0.00 | 0.00 | 99 | 1020.5 |
| 20260506144624 | 52 | 288 | 0.0 | 0.9 | 0.00 | 0.00 | 0.00 | 99 | 1020.5 |
| 20260506144120 | 52 | 297 | 0.0 | 0.0 | 0.00 | 0.00 | 0.00 | 99 | 1020.5 |
| 20260506143618 | 53 | 304 | 0.0 | 0.0 | 0.00 | 0.00 | 0.00 | 99 | 1020.2 |
| 20260506143116 | 53 | 315 | 0.0 | 0.0 | 0.00 | 0.00 | 0.00 | 99 | 1020.2 |
| 20260506142614 | 53 | 331 | 0.0 | 0.0 | 0.00 | 0.00 | 0.00 | 99 | 1019.9 |
| 20260506142112 | 53 | 305 | 0.0 | 0.9 | 0.00 | 0.00 | 0.00 | 99 | 1019.9 |
| 20260506141608 | 53 | 314 | 0.0 | 0.0 | 0.00 | 0.00 | 0.00 | 99 | 1020.2 |
| 20260506141107 | 53 | 338 | 0.0 | 0.0 | 0.00 | 0.00 | 0.00 | 99 | 1020.2 |
| 20260506140604 | 53 | 358 | 0.0 | 0.0 | 0.00 | 0.00 | 0.00 | 99 | 1020.2 |
| 20260506135558 | 53 | 40 | 0.0 | 0.0 | 0.00 | 0.00 | 0.00 | 99 | 1020.2 |
| 20260506135054 | 53 | 32 | 0.0 | 0.0 | 0.00 | 0.00 | 0.00 | 99 | 1019.9 |
| 20260506134551 | 53 | 321 | 0.0 | 0.0 | 0.00 | 0.00 | 0.00 | 99 | 1020.2 |
| 20260506134047 | 53 | 324 | 0.0 | 0.0 | 0.00 | 0.00 | 0.00 | 99 | 1020.2 |
| 20260506133544 | 53 | 314 | 0.0 | 0.9 | 0.00 | 0.00 | 0.00 | 98 | 1019.9 |
| 20260506133041 | 53 | 346 | 0.0 | 0.0 | 0.00 | 0.00 | 0.00 | 98 | 1019.9 |
| 20260506132538 | 53 | 219 | 0.0 | 0.0 | 0.00 | 0.00 | 0.00 | 98 | 1020.2 |
| 20260506132035 | 53 | 300 | 0.0 | 0.0 | 0.00 | 0.00 | 0.00 | 98 | 1019.9 |
| 20260506131532 | 53 | 340 | 0.0 | 0.0 | 0.00 | 0.00 | 0.00 | 98 | 1019.5 |
| 20260506131029 | 53 | 28 | 0.0 | 0.0 | 0.00 | 0.00 | 0.00 | 98 | 1019.5 |
| 20260506130526 | 53 | 331 | 0.0 | 0.0 | 0.00 | 0.00 | 0.00 | 98 | 1019.9 |
| 20260506130023 | 53 | 334 | 0.0 | 0.0 | 0.00 | 0.00 | 0.00 | 97 | 1019.5 |
| 20260506125521 | 53 | 325 | 0.0 | 0.0 | 0.00 | 0.00 | 0.00 | 97 | 1019.9 |
| 20260506125019 | 53 | 303 | 0.0 | 0.0 | 0.00 | 0.00 | 0.00 | 97 | 1019.5 |
| 20260506124517 | 53 | 317 | 0.0 | 0.0 | 0.00 | 0.00 | 0.00 | 97 | 1019.5 |
| 20260506124014 | 53 | 324 | 0.0 | 0.0 | 0.00 | 0.00 | 0.00 | 97 | 1019.9 |
| 20260506123512 | 53 | 238 | 0.0 | 0.0 | 0.00 | 0.00 | 0.00 | 97 | 1019.5 |
| 20260506123010 | 53 | 328 | 0.0 | 0.0 | 0.00 | 0.00 | 0.00 | 97 | 1019.5 |
| 20260506122506 | 53 | 288 | 0.0 | 0.0 | 0.00 | 0.00 | 0.00 | 97 | 1019.5 |
| 20260506122005 | 53 | 315 | 0.0 | 0.0 | 0.00 | 0.00 | 0.00 | 97 | 1019.5 |
| 20260506121501 | 53 | 355 | 0.0 | 0.0 | 0.00 | 0.00 | 0.00 | 97 | 1019.5 |
| 20260506120958 | 53 | 329 | 0.0 | 0.0 | 0.00 | 0.00 | 0.00 | 97 | 1019.5 |
| 20260506120456 | 53 | 289 | 0.0 | 0.9 | 0.00 | 0.00 | 0.00 | 96 | 1019.2 |
| 20260506115953 | 53 | 341 | 0.0 | 0.0 | 0.00 | 0.00 | 0.00 | 96 | 1019.2 |
| 20260506115451 | 53 | 333 | 0.0 | 0.0 | 0.00 | 0.00 | 0.00 | 96 | 1019.2 |
| 20260506114949 | 53 | 322 | 0.0 | 0.0 | 0.00 | 0.00 | 0.00 | 95 | 1019.2 |
| 20260506114446 | 53 | 339 | 0.0 | 0.0 | 0.00 | 0.00 | 0.00 | 95 | 1019.2 |
| 20260506113944 | 53 | 336 | 0.0 | 0.0 | 0.00 | 0.00 | 0.00 | 95 | 1019.5 |
| 20260506113442 | 53 | 303 | 0.0 | 0.0 | 0.00 | 0.00 | 0.00 | 94 | 1019.5 |
| 20260506112938 | 53 | 281 | 0.0 | 0.9 | 0.00 | 0.00 | 0.00 | 94 | 1019.2 |
| 20260506112436 | 53 | 310 | 0.0 | 0.9 | 0.00 | 0.00 | 0.00 | 94 | 1019.2 |
| 20260506111933 | 53 | 326 | 0.0 | 0.0 | 0.00 | 0.00 | 0.00 | 93 | 1019.2 |
| 20260506111431 | 53 | 320 | 0.0 | 0.0 | 0.00 | 0.00 | 0.00 | 93 | 1019.2 |
| 20260506110928 | 53 | 305 | 0.0 | 0.0 | 0.00 | 0.00 | 0.00 | 93 | 1019.2 |
| 20260506110426 | 53 | 254 | 0.0 | 0.9 | 0.00 | 0.00 | 0.00 | 93 | 1018.9 |
| 20260506105922 | 53 | 295 | 0.0 | 0.9 | 0.00 | 0.00 | 0.00 | 93 | 1019.2 |
| 20260506105418 | 53 | 314 | 0.0 | 0.0 | 0.00 | 0.00 | 0.00 | 93 | 1018.9 |
| 20260506104916 | 53 | 305 | 0.0 | 0.0 | 0.00 | 0.00 | 0.00 | 93 | 1018.9 |
| 20260506104414 | 53 | 315 | 0.0 | 0.0 | 0.00 | 0.00 | 0.00 | 93 | 1018.9 |
| 20260506103911 | 53 | 260 | 0.0 | 0.9 | 0.00 | 0.00 | 0.00 | 93 | 1018.9 |
| 20260506103409 | 53 | 309 | 0.0 | 0.0 | 0.00 | 0.00 | 0.00 | 93 | 1018.9 |
| 20260506102905 | 53 | 288 | 0.0 | 0.9 | 0.00 | 0.00 | 0.00 | 93 | 1018.9 |
| 20260506102404 | 53 | 291 | 0.0 | 0.9 | 0.00 | 0.00 | 0.00 | 93 | 1018.9 |
| 20260506101900 | 53 | 220 | 0.0 | 0.9 | 0.00 | 0.00 | 0.00 | 92 | 1018.9 |
| 20260506101356 | 53 | 260 | 0.0 | 0.9 | 0.00 | 0.00 | 0.00 | 92 | 1018.9 |
| 20260506100854 | 53 | 278 | 0.0 | 0.9 | 0.00 | 0.00 | 0.00 | 92 | 1018.9 |
| 20260506100352 | 53 | 310 | 0.0 | 0.0 | 0.00 | 0.00 | 0.00 | 92 | 1018.9 |
| 20260506095850 | 53 | 297 | 0.0 | 0.0 | 0.00 | 0.00 | 0.00 | 92 | 1018.5 |
| 20260506095348 | 53 | 299 | 0.0 | 0.9 | 0.00 | 0.00 | 0.00 | 92 | 1018.5 |
| 20260506094844 | 53 | 280 | 0.0 | 2.6 | 0.00 | 0.00 | 0.00 | 91 | 1018.5 |
| 20260506094343 | 53 | 255 | 0.0 | 0.9 | 0.00 | 0.00 | 0.00 | 91 | 1018.5 |
| 20260506093841 | 54 | 312 | 0.0 | 0.9 | 0.00 | 0.00 | 0.00 | 91 | 1018.5 |
| 20260506093338 | 54 | 312 | 0.0 | 0.9 | 0.00 | 0.00 | 0.00 | 91 | 1018.5 |
| 20260506092835 | 54 | 223 | 0.9 | 1.7 | 0.00 | 0.00 | 0.00 | 91 | 1018.5 |
| 20260506092333 | 54 | 282 | 0.0 | 1.7 | 0.00 | 0.00 | 0.00 | 91 | 1018.2 |
| 20260506091830 | 54 | 264 | 0.9 | 0.9 | 0.00 | 0.00 | 0.00 | 91 | 1018.5 |
| 20260506091328 | 54 | 288 | 0.0 | 0.9 | 0.00 | 0.00 | 0.00 | 91 | 1018.5 |
| 20260506090825 | 54 | 310 | 0.0 | 0.0 | 0.00 | 0.00 | 0.00 | 91 | 1018.5 |
| 20260506090322 | 54 | 319 | 0.0 | 0.0 | 0.00 | 0.00 | 0.00 | 91 | 1018.5 |
| 20260506085819 | 54 | 303 | 0.0 | 0.9 | 0.00 | 0.00 | 0.00 | 91 | 1018.2 |
| 20260506085315 | 54 | 304 | 0.0 | 0.9 | 0.00 | 0.00 | 0.00 | 91 | 1018.2 |
| 20260506084812 | 54 | 317 | 0.0 | 0.0 | 0.00 | 0.00 | 0.00 | 91 | 1018.2 |
| 20260506084308 | 54 | 302 | 0.0 | 0.0 | 0.00 | 0.00 | 0.00 | 91 | 1018.2 |
| 20260506083805 | 54 | 306 | 0.0 | 0.0 | 0.00 | 0.00 | 0.00 | 91 | 1018.2 |
| 20260506083303 | 54 | 297 | 0.0 | 0.9 | 0.00 | 0.00 | 0.00 | 91 | 1018.2 |
| 20260506082800 | 54 | 260 | 0.0 | 0.9 | 0.00 | 0.00 | 0.00 | 91 | 1017.8 |
| 20260506082255 | 54 | 292 | 0.0 | 1.7 | 0.00 | 0.00 | 0.00 | 91 | 1017.8 |
| 20260506081753 | 54 | 313 | 0.0 | 0.0 | 0.00 | 0.00 | 0.00 | 90 | 1018.2 |
| 20260506081251 | 54 | 301 | 0.0 | 0.9 | 0.00 | 0.00 | 0.00 | 90 | 1018.2 |
| 20260506080749 | 54 | 291 | 0.0 | 0.9 | 0.00 | 0.00 | 0.00 | 90 | 1018.2 |
| 20260506080244 | 54 | 307 | 0.0 | 0.9 | 0.00 | 0.00 | 0.00 | 90 | 1018.2 |
| 20260506073228 | 54 | 289 | 0.0 | 0.9 | 0.00 | 0.00 | 0.00 | 92 | 1017.8 |